GW6793 Weather Reports


time (UTC)temp
C
wind
direction
speed
KPH
gust
KPH
rain 1hr
cm
rain 24hr
cm
rain mn
cm
humidity
%
barometer
mb
20260510045005 21 38 0.0 1.6 0.00 0.05 0.05 86 1010.7
20260510044504 21 38 0.0 3.2 0.00 0.05 0.05 86 1010.7
20260510044005 21 38 0.0 3.2 0.00 0.05 0.05 86 1010.9
20260510043005 21 24 0.0 3.2 0.00 0.05 0.05 86 1010.7
20260510042504 21 24 0.0 1.6 0.00 0.05 0.05 86 1010.8
20260510042005 21 24 0.0 0.0 0.00 0.05 0.05 85 1010.7
20260510041505 21 24 0.0 1.6 0.00 0.05 0.05 85 1010.7
20260510041004 21 24 0.0 1.6 0.00 0.05 0.05 84 1010.6
20260510040506 21 24 0.0 0.0 0.00 0.05 0.05 84 1010.5
20260510040004 21 24 0.0 0.0 0.00 0.05 0.05 84 1010.5
20260510035502 21 24 0.0 0.0 0.00 0.05 0.05 84 1010.4
20260510035003 21 24 0.0 0.0 0.00 0.05 0.05 83 1010.4
20260510034004 22 24 0.0 1.6 0.00 0.05 0.05 83 1010.2
20260510033503 22 24 0.0 1.6 0.00 0.05 0.05 83 1010.2
20260510033003 22 24 0.0 3.2 0.00 0.05 0.05 83 1010.2
20260510032504 22 24 0.0 3.2 0.00 0.05 0.05 82 1010.1
20260510032003 22 24 0.0 1.6 0.00 0.05 0.05 82 1010.0
20260510031004 22 24 0.0 1.6 0.00 0.05 0.05 81 1009.9
20260510030504 22 24 0.0 1.6 0.00 0.05 0.05 81 1009.9
20260510030003 22 24 0.0 0.0 0.00 0.05 0.05 81 1009.8
20260510025503 22 24 0.0 1.6 0.00 0.05 0.05 81 1009.8
20260510024004 22 5 0.0 3.2 0.00 0.05 0.05 82 1009.8
20260510023004 22 5 0.0 1.6 0.00 0.05 0.05 81 1009.5
20260510022003 22 5 0.0 0.0 0.00 0.05 0.05 81 1009.4
20260510021504 22 5 0.0 1.6 0.00 0.05 0.05 80 1009.4
20260510021003 22 5 0.0 1.6 0.00 0.05 0.05 80 1009.3
20260510020504 22 5 0.0 1.6 0.00 0.05 0.05 80 1009.2
20260510020002 22 5 0.0 1.6 0.00 0.05 0.05 79 1009.1
20260510015502 22 5 0.0 1.6 0.00 0.05 0.05 78 1008.9
20260510015002 23 5 0.0 1.6 0.00 0.05 0.05 78 1008.8
20260510014502 23 5 0.0 1.6 0.00 0.05 0.05 78 1008.7
20260510013503 23 5 0.0 0.0 0.00 0.05 0.05 75 1008.4
20260510013003 24 5 0.0 1.6 0.00 0.05 0.05 75 1008.2
20260510012502 24 5 0.0 3.2 0.00 0.05 0.05 74 1008.2
20260510012002 24 5 1.6 4.8 0.00 0.05 0.05 73 1008.1
20260510011502 25 5 1.6 4.8 0.00 0.05 0.05 72 1008.2
20260510011003 25 5 0.0 3.2 0.00 0.05 0.05 73 1008.2
20260510010503 25 5 0.0 3.2 0.00 0.05 0.05 72 1008.2
20260510010005 25 5 0.0 1.6 0.00 0.05 0.05 71 1008.1
20260510005503 25 5 0.0 1.6 0.00 0.05 0.05 71 1008.0
20260510005003 26 5 0.0 1.6 0.00 0.05 0.05 70 1008.2
20260510004503 26 5 0.0 1.6 0.00 0.05 0.05 70 1008.2
20260510004003 26 5 0.0 1.6 0.00 0.05 0.05 70 1008.1
20260510003503 26 5 0.0 3.2 0.00 0.05 0.05 69 1008.1
20260510002504 25 10 0.0 1.6 0.00 0.05 0.05 70 1008.3
20260510002003 26 10 0.0 1.6 0.00 0.05 0.05 70 1008.2
20260510001503 26 10 0.0 1.6 0.00 0.05 0.05 69 1008.1
20260510000004 26 5 0.0 0.0 0.00 0.05 0.05 65 1008.3
20260509235503 26 5 0.0 4.8 0.00 0.05 0.05 64 1008.5
20260509235002 26 5 1.6 8.0 0.00 0.05 0.05 63 1008.1
20260509234502 26 355 1.6 8.0 0.00 0.05 0.05 63 1008.1
20260509234003 26 5 0.0 3.2 0.00 0.05 0.05 66 1008.0
20260509233502 27 9 1.6 4.8 0.00 0.05 0.05 66 1007.8
20260509233004 27 9 1.6 4.8 0.00 0.05 0.05 63 1008.0
20260509232502 27 355 1.6 4.8 0.00 0.05 0.05 63 1008.0
20260509232001 27 5 3.2 8.0 0.00 0.05 0.05 62 1008.0
20260509230002 30 331 3.2 16.1 0.00 0.05 0.05 57 1008.3
20260509225502 31 337 0.0 16.1 0.00 0.05 0.05 52 1008.0
20260509224001 31 327 0.0 1.6 0.00 0.05 0.05 55 1007.7
20260509223501 31 327 0.0 1.6 0.00 0.05 0.05 55 1007.6
20260509223001 31 321 0.0 1.6 0.00 0.05 0.05 56 1007.5
20260509222501 31 321 0.0 3.2 0.00 0.05 0.05 57 1007.4
20260509222001 31 311 0.0 4.8 0.00 0.05 0.05 55 1007.3
20260509221501 31 307 0.0 4.8 0.00 0.05 0.05 54 1007.2
20260509221001 31 239 1.6 8.0 0.00 0.05 0.05 53 1007.1
20260509220501 31 239 3.2 12.9 0.00 0.05 0.05 54 1007.0
20260509220002 31 215 1.6 12.9 0.00 0.05 0.05 55 1007.0
20260509215501 31 317 0.0 3.2 0.00 0.05 0.05 53 1007.0
20260509214501 31 342 1.6 6.4 0.00 0.05 0.05 54 1007.4
20260509214001 31 192 0.0 4.8 0.00 0.05 0.05 52 1007.4
20260509213501 31 117 1.6 4.8 0.00 0.05 0.05 52 1007.5
20260509212501 31 213 1.6 6.4 0.00 0.05 0.05 53 1007.5
20260509212002 31 239 1.6 4.8 0.00 0.05 0.05 55 1007.5
20260509211502 31 309 1.6 4.8 0.00 0.05 0.05 53 1007.5
20260509211000 31 270 0.0 6.4 0.00 0.05 0.05 54 1007.7
20260509210501 31 213 0.0 6.4 0.00 0.05 0.05 54 1007.7
20260509210002 31 349 1.6 4.8 0.00 0.05 0.05 56 1007.8
20260509205502 31 348 1.6 4.8 0.00 0.05 0.05 55 1007.9
20260509205001 31 329 1.6 8.0 0.00 0.05 0.05 55 1008.0
20260509204502 31 5 1.6 8.0 0.00 0.05 0.05 56 1008.0
20260509204002 31 203 1.6 6.4 0.00 0.05 0.05 53 1008.2
20260509203501 31 240 1.6 6.4 0.00 0.05 0.05 56 1008.3
20260509203002 31 342 1.6 4.8 0.00 0.05 0.05 57 1008.3
20260509202501 31 360 1.6 4.8 0.00 0.05 0.05 57 1008.3
20260509202002 31 71 1.6 9.7 0.00 0.05 0.05 57 1008.3
20260509201503 31 57 3.2 9.7 0.00 0.05 0.05 61 1008.4
20260509201002 31 13 1.6 6.4 0.00 0.05 0.05 58 1008.4
20260509200501 31 348 1.6 6.4 0.00 0.05 0.05 60 1008.4
20260509200003 31 342 3.2 6.4 0.00 0.05 0.05 57 1008.5
20260509195502 31 350 1.6 6.4 0.00 0.05 0.05 56 1008.6
20260509195002 31 282 1.6 6.4 0.00 0.05 0.05 55 1008.6
20260509194502 31 84 1.6 8.0 0.00 0.05 0.05 57 1008.6
20260509194001 31 169 3.2 8.0 0.00 0.05 0.05 60 1008.5
20260509193502 31 206 1.6 8.0 0.00 0.05 0.05 60 1008.6
20260509193001 31 316 1.6 4.8 0.00 0.05 0.05 58 1008.8
20260509192501 31 240 1.6 8.0 0.00 0.05 0.05 64 1008.8
20260509192002 30 308 3.2 8.0 0.00 0.05 0.05 64 1008.8
20260509191501 30 267 3.2 8.0 0.00 0.05 0.05 67 1008.9
20260509191003 30 5 3.2 8.0 0.00 0.05 0.05 65 1009.0
20260509190502 30 255 1.6 6.4 0.00 0.05 0.05 66 1009.0
20260509190003 30 336 1.6 6.4 0.00 0.05 0.05 66 1009.1
20260509185500 30 9 3.2 4.8 0.00 0.05 0.05 65 1009.1
20260509185000 30 283 3.2 6.4 0.00 0.05 0.05 68 1009.2
20260509184001 30 310 1.6 4.8 0.00 0.05 0.05 65 1009.3
20260509183500 30 290 1.6 8.0 0.00 0.05 0.05 65 1009.4
20260509183000 30 246 1.6 8.0 0.00 0.05 0.05 65 1009.4
20260509181501 30 202 4.8 9.7 0.00 0.05 0.05 67 1009.7
20260509181002 30 221 3.2 9.7 0.00 0.05 0.05 68 1009.8
20260509180001 29 221 3.2 9.7 0.00 0.05 0.05 69 1010.0
20260509175500 29 255 1.6 6.4 0.00 0.05 0.05 67 1010.1
20260509175002 28 282 1.6 4.8 0.00 0.05 0.05 69 1010.2
20260509174501 28 284 1.6 4.8 0.00 0.05 0.05 72 1010.2
20260509174001 28 296 0.0 3.2 0.00 0.05 0.05 75 1010.2
20260509173500 28 296 1.6 6.4 0.00 0.05 0.05 76 1010.2
20260509173001 28 296 1.6 6.4 0.00 0.05 0.05 75 1010.3
20260509172500 28 308 1.6 8.0 0.00 0.05 0.05 77 1010.5
20260509172000 28 5 1.6 8.0 0.00 0.05 0.05 77 1010.5
20260509171500 27 276 1.6 6.4 0.00 0.05 0.05 80 1010.5
20260509170501 27 197 1.6 4.8 0.00 0.05 0.05 80 1010.5
20260509170003 27 192 1.6 4.8 0.00 0.05 0.05 84 1010.4
20260509165502 27 101 1.6 9.7 0.00 0.05 0.05 86 1010.5
20260509165000 26 98 3.2 9.7 0.00 0.05 0.05 85 1010.6
20260509164500 26 34 1.6 4.8 0.00 0.05 0.05 85 1010.5
20260509164000 26 304 1.6 3.2 0.00 0.05 0.05 85 1010.5
20260509162459 26 304 1.6 4.8 0.00 0.05 0.05 82 1010.5
20260509162001 26 302 1.6 4.8 0.00 0.05 0.05 83 1010.4
20260509161500 26 297 1.6 4.8 0.00 0.05 0.05 82 1010.4
20260509160501 27 242 1.6 3.2 0.00 0.05 0.05 84 1010.1
20260509160002 26 242 1.6 4.8 0.00 0.05 0.05 86 1010.1
20260509155003 26 242 1.6 6.4 0.00 0.05 0.05 87 1010.3
20260509154002 26 244 1.6 4.8 0.00 0.05 0.05 87 1010.3
20260509152500 25 244 1.6 6.4 0.00 0.05 0.05 90 1010.3
20260509152000 25 246 0.0 1.6 0.00 0.05 0.05 91 1010.3
20260509151500 25 246 0.0 1.6 0.00 0.05 0.05 92 1010.4
20260509151000 25 246 1.6 4.8 0.00 0.05 0.05 93 1010.3
20260509150500 25 246 1.6 6.4 0.00 0.05 0.05 94 1010.3
20260509150002 25 246 1.6 6.4 0.00 0.05 0.05 95 1010.2
20260509145458 25 329 1.6 4.8 0.00 0.05 0.05 96 1010.2
20260509144958 24 360 0.0 4.8 0.00 0.05 0.05 96 1010.1
20260509144500 24 360 0.0 3.2 0.00 0.05 0.05 96 1009.8
20260509143459 23 360 1.6 4.8 0.00 0.05 0.05 97 1009.7
20260509143001 23 360 1.6 4.8 0.00 0.05 0.05 97 1009.7
20260509142459 23 360 0.0 3.2 0.00 0.05 0.05 97 1009.7
20260509142000 23 360 0.0 1.6 0.00 0.05 0.05 97 1009.4
20260509141501 23 360 0.0 1.6 0.00 0.05 0.05 96 1009.4
20260509140959 23 360 1.6 1.6 0.00 0.05 0.05 97 1009.4
20260509140459 23 360 3.2 6.4 0.00 0.05 0.05 97 1009.4
20260509135459 23 43 3.2 6.4 0.03 0.05 0.05 97 1008.9
20260509134959 23 103 1.6 6.4 0.03 0.05 0.05 97 1008.7
20260509134459 23 153 0.0 3.2 0.05 0.05 0.05 96 1009.6
20260509133459 23 153 0.0 1.6 0.05 0.05 0.05 96 1009.8
20260509132959 23 153 0.0 1.6 0.05 0.05 0.05 96 1010.0
20260509132500 23 153 0.0 3.2 0.05 0.05 0.05 96 1010.0
20260509131959 23 153 0.0 3.2 0.05 0.05 0.05 96 1010.0
20260509131501 23 140 1.6 3.2 0.05 0.05 0.05 96 1010.0
20260509131000 23 140 1.6 3.2 0.05 0.05 0.05 96 1010.2
20260509130459 22 121 0.0 1.6 0.05 0.05 0.05 96 1010.5
20260509125959 22 121 0.0 1.6 0.05 0.05 0.05 96 1010.6
20260509125457 22 121 0.0 3.2 0.03 0.03 0.03 96 1010.6
20260509124959 22 121 0.0 3.2 0.03 0.03 0.03 96 1010.7
20260509124458 22 121 0.0 1.6 0.00 0.00 0.00 96 1010.7
20260509123958 22 121 0.0 1.6 0.00 0.00 0.00 96 1010.7
20260509123458 22 121 0.0 1.6 0.00 0.00 0.00 96 1010.6
20260509121958 22 121 0.0 1.6 0.00 0.00 0.00 96 1010.7
20260509121458 22 121 0.0 1.6 0.00 0.00 0.00 96 1010.6
20260509120959 22 121 0.0 1.6 0.00 0.00 0.00 96 1010.5
20260509120458 22 121 0.0 1.6 0.00 0.00 0.00 96 1010.5
20260509115959 22 121 0.0 1.6 0.00 0.00 0.00 96 1010.3
20260509114958 22 121 0.0 3.2 0.00 0.00 0.00 96 1010.0
20260509114459 22 121 0.0 4.8 0.00 0.00 0.00 96 1009.7
20260509113959 22 121 1.6 4.8 0.00 0.00 0.00 96 1009.4
20260509113459 22 132 0.0 3.2 0.00 0.00 0.00 96 1009.5
20260509112458 22 132 0.0 3.2 0.00 0.00 0.00 96 1010.0
20260509111959 22 132 1.6 4.8 0.00 0.00 0.00 96 1009.9
20260509111459 22 132 1.6 4.8 0.00 0.00 0.00 96 1010.0
20260509110959 22 79 0.0 3.2 0.00 0.00 0.00 96 1010.3
20260509110459 22 79 0.0 1.6 0.00 0.00 0.00 96 1010.4
20260509110001 22 79 0.0 1.6 0.00 0.00 0.00 96 1010.3
20260509105458 22 79 0.0 1.6 0.00 0.00 0.00 96 1010.0
20260509104458 22 79 0.0 1.6 0.00 0.00 0.00 96 1009.8
20260509103958 22 79 0.0 1.6 0.00 0.00 0.00 96 1009.6
20260509103459 22 79 0.0 0.0 0.00 0.00 0.00 96 1009.6
20260509102958 22 79 0.0 1.6 0.00 0.00 0.00 96 1009.6
20260509102458 22 79 0.0 1.6 0.00 0.00 0.00 96 1009.6
20260509101956 22 79 0.0 1.6 0.00 0.00 0.00 96 1009.6
20260509101457 22 79 0.0 1.6 0.00 0.00 0.00 96 1009.4
20260509100958 22 79 0.0 1.6 0.00 0.00 0.00 96 1009.4
20260509100458 22 79 1.6 3.2 0.00 0.00 0.00 96 1009.3
20260509095957 22 79 0.0 3.2 0.00 0.00 0.00 96 1009.5
20260509094958 22 79 0.0 0.0 0.00 0.00 0.00 96 1009.8
20260509094457 22 79 0.0 1.6 0.00 0.00 0.00 96 1009.8
20260509093957 22 79 0.0 1.6 0.00 0.00 0.00 96 1009.5
20260509092957 22 79 0.0 1.6 0.00 0.00 0.00 96 1009.2
20260509092456 22 79 0.0 3.2 0.00 0.00 0.00 96 1009.1
20260509091957 22 79 0.0 3.2 0.00 0.00 0.00 95 1009.0
20260509090957 22 79 0.0 3.2 0.00 0.00 0.00 95 1009.1
20260509090000 22 79 1.6 6.4 0.00 0.00 0.00 95 1009.2
20260509085458 22 78 1.6 6.4 0.00 0.00 0.00 95 1008.9
20260509084958 22 98 1.6 4.8 0.00 0.00 0.00 95 1009.0
20260509083458 22 97 1.6 6.4 0.00 0.00 0.00 95 1009.4
20260509082458 22 148 1.6 4.8 0.00 0.00 0.00 95 1009.3
20260509081958 22 202 1.6 4.8 0.00 0.00 0.00 95 1009.3
20260509081458 22 196 1.6 4.8 0.00 0.00 0.00 95 1009.3
20260509080958 22 198 1.6 3.2 0.00 0.00 0.00 95 1009.5
20260509080457 22 195 1.6 4.8 0.00 0.00 0.00 95 1009.4
20260509075959 22 192 1.6 8.0 0.00 0.00 0.00 95 1009.3
20260509075456 22 205 1.6 8.0 0.00 0.00 0.00 95 1009.3
20260509074957 22 217 3.2 9.7 0.00 0.00 0.00 95 1009.5
20260509073957 22 208 1.6 9.7 0.00 0.00 0.00 94 1009.5
20260509073457 22 187 1.6 9.7 0.00 0.00 0.00 94 1009.3
20260509072958 22 165 1.6 4.8 0.00 0.00 0.00 94 1009.3
20260509072457 22 182 1.6 4.8 0.00 0.00 0.00 94 1009.3
20260509071957 22 147 1.6 6.4 0.00 0.00 0.00 93 1009.2
20260509071457 22 110 3.2 6.4 0.00 0.00 0.00 93 1009.4
20260509070957 22 166 1.6 6.4 0.00 0.00 0.00 93 1009.5
20260509070457 22 103 1.6 6.4 0.00 0.00 0.00 93 1009.4
20260509064456 22 217 1.6 9.7 0.00 0.00 0.00 92 1009.3
20260509063956 22 221 1.6 4.8 0.00 0.00 0.00 92 1009.3
20260509063456 22 222 1.6 4.8 0.00 0.00 0.00 92 1009.4
20260509062955 22 154 1.6 4.8 0.00 0.00 0.00 92 1009.5
20260509062456 22 124 1.6 3.2 0.00 0.00 0.00 91 1009.5
20260509061457 22 103 1.6 9.7 0.00 0.00 0.00 91 1009.5
20260509060956 22 136 0.0 3.2 0.00 0.00 0.00 91 1009.7
20260509060457 22 136 0.0 3.2 0.00 0.00 0.00 91 1009.9
20260509055504 22 136 0.0 3.2 0.00 0.00 0.00 91 1010.0
20260509055004 22 135 0.0 3.2 0.00 0.00 0.00 90 1010.0
20260509054504 22 109 0.0 3.2 0.00 0.00 0.00 90 1010.1
20260509054004 22 96 1.6 6.4 0.00 0.00 0.00 90 1010.2
20260509053004 22 128 1.6 6.4 0.00 0.00 0.00 90 1010.2
20260509052505 22 103 1.6 6.4 0.00 0.00 0.00 90 1010.2
20260509052004 22 106 1.6 6.4 0.00 0.00 0.00 90 1010.0
20260509051504 22 69 1.6 11.3 0.00 0.00 0.00 89 1009.9
20260509050504 22 197 1.6 9.7 0.00 0.00 0.00 89 1010.0
20260509050004 22 126 1.6 9.7 0.00 0.00 0.00 89 1010.0